Погода в Богополе

Россия / Приморский край     44°14′54″N   135°27′24″E
темп.,
°C
ветер,
м/с
пор.,
м/с
влажн.,
%
обл.,
%
осадки,
мм/ч
давл.,
гПа
погр.,
м
14 мая, пт
пт1401:00+9зсз22755 0.0 101231
04:00+9зсз337967 0.0 101241
07:00+10зсз23761 0.0 101377
10:00+19зсз25400 0.0 1013959
13:00+22з352393 0.0 10122904
16:00+23ююз34245 0.0 10112421
19:00+17ююз2547100 0.0 1012142
22:00+13зюз0051100 0.0 101210
15 мая, сб
сб1501:00+12зюз1150100 0.0 101212
04:00+12св1157100 0.1 101112
07:00+10юв1177100 0.0 100974
10:00+18ююз2562100 0.0 1007741
13:00+24юз4944100 0.0 10042108
16:00+22сз2858100 0.1 1002743
19:00+15сз4136998 0.0 1006751
22:00+11зсз31279100 0.7 1008821
16 мая, вс
вс1601:00+11зсз1183100 0.4 100839
04:00+10зсз2286100 0.4 100952
07:00+10зсз2287100 0.0 100978
10:00+13з2571100 0.0 1009444
13:00+14з3559100 0.0 10081111
16:00+16зсз2446100 0.1 10061463
19:00+14юз1165100 0.0 100526
22:00+11з1173100 0.0 100613
17 мая, пн
пн1701:00+9зсз2280100 0.0 100521
04:00+8сз3382100 0.0 100451
07:00+10зсз237525 0.0 100596
10:00+19зсз24411 0.0 1004933
13:00+24ссз142519 0.0 10022496
16:00+24сз25255 0.0 10022423
19:00+19сз2344100 0.0 100357
22:00+14зсз2255100 0.0 100515
18 мая, вт
вт1801:00+13зсз2261100 0.0 100632
04:00+12зсз3362100 0.0 100641
07:00+13зсз23620 0.0 100676
10:00+23з24350 0.0 1006603
13:00+27зюз252525 0.0 10052842
16:00+25вюв143293 0.0 1004989
19:00+21ююв11540 0.0 100533
22:00+16сз11633 0.0 100611